period_start,C,m1,H,J0,J1,J2,J3,J4,J5,JA,JB,JC,JD,JJ,JK,JN,#
2015-12-22 00:02:45,0.11,3.58,0.00,12.85,17.19,21.08,15.33,49.77,1023.93,2069.99,2432.03,2351.31,2624.34,600.38,622.03,36.01,0000 0000 0000 0000 000000
2015-12-22 00:07:47,0.11,3.58,0.00,12.83,17.19,21.06,15.24,49.63,1023.94,2069.99,2430.47,2350.15,2623.08,600.40,622.02,36.06,0000 0000 0000 0000 000000
2015-12-22 00:12:48,0.13,3.59,0.00,12.83,17.17,21.04,15.24,49.64,1023.94,2069.99,2428.74,2348.91,2621.88,599.97,621.56,36.11,0000 0000 0000 0000 000000
2015-12-22 00:17:49,0.11,3.60,0.00,12.83,17.17,21.06,15.22,49.46,1023.92,2069.99,2427.26,2347.79,2620.59,599.91,621.58,36.16,0000 0000 0000 0000 000000
2015-12-22 00:22:51,0.12,3.60,0.00,12.84,17.17,21.06,15.21,49.31,1023.94,2069.99,2425.71,2346.66,2619.34,600.09,621.83,36.21,0000 0000 0000 0000 000000
2015-12-22 00:27:52,0.11,3.61,0.00,12.81,17.16,21.04,15.23,49.40,1023.94,2070.00,2424.16,2345.46,2617.98,600.02,621.63,36.26,0000 0000 0000 0000 000000
2015-12-22 00:32:53,0.12,3.61,0.00,12.80,17.14,21.02,15.23,49.33,1023.94,2070.01,2422.55,2344.37,2616.61,600.10,621.80,36.31,0000 0000 0000 0000 000000
2015-12-22 00:37:54,0.12,3.62,0.00,12.80,17.14,21.02,15.21,49.42,1023.95,2070.00,2420.79,2343.06,2615.30,600.09,621.84,36.36,0000 0000 0000 0000 000000
2015-12-22 00:42:56,0.12,3.63,0.00,12.80,17.14,21.04,15.30,49.58,1023.95,2070.00,2419.28,2341.86,2613.90,600.06,621.73,36.41,0000 0000 0000 0000 000000
2015-12-22 00:47:57,0.12,3.63,0.00,12.81,17.14,21.06,15.30,49.48,1023.94,2070.00,2417.75,2340.75,2612.60,599.87,621.56,36.46,0000 0000 0000 0000 000000
2015-12-22 00:52:58,0.11,3.64,0.00,12.81,17.14,21.04,15.24,49.50,1023.94,2070.02,2416.14,2339.60,2611.36,600.01,621.75,36.51,0000 0000 0000 0000 000000
2015-12-22 00:58:00,0.11,3.65,0.00,12.80,17.14,21.01,15.23,49.52,1023.94,2070.01,2414.61,2338.42,2610.03,600.02,621.71,36.56,0000 0000 0000 0000 000000
2015-12-22 01:03:01,0.12,3.65,0.00,12.79,17.13,21.04,15.23,49.47,1023.95,2070.00,2412.98,2337.26,2608.75,599.92,621.77,36.62,0000 0000 0000 0000 000000
2015-12-22 01:08:02,0.11,3.66,0.00,12.80,17.12,21.01,15.26,49.51,1023.97,2070.03,2411.42,2336.09,2607.51,600.45,622.19,36.67,0000 0000 0000 0000 000000
2015-12-22 01:13:03,0.12,3.66,0.00,12.79,17.12,21.01,15.27,49.56,1023.96,2070.03,2409.79,2334.90,2606.23,600.16,621.94,36.72,0000 0000 0000 0000 000000
2015-12-22 01:18:05,0.12,3.67,0.00,12.76,17.12,21.04,15.28,49.48,1023.99,2070.03,2408.31,2333.74,2604.85,600.08,621.94,36.77,0000 0000 0000 0000 000000
2015-12-22 01:23:06,0.12,3.68,0.00,12.79,17.10,21.01,15.25,49.33,1024.09,2070.04,2406.70,2332.61,2603.62,600.09,621.81,36.82,0000 0000 0000 0000 000000
2015-12-22 01:28:07,0.10,3.68,0.00,12.77,17.09,21.06,15.20,49.28,1024.24,2070.02,2405.22,2331.54,2602.38,600.17,622.16,36.87,0000 0000 0000 0000 000000
2015-12-22 01:33:08,0.12,3.69,0.00,12.73,17.09,20.98,15.25,49.52,1024.24,2070.03,2403.67,2330.34,2601.03,599.88,621.97,36.92,0000 0000 0000 0000 000000
2015-12-22 01:38:10,0.11,3.69,0.00,12.74,17.09,20.96,15.20,49.48,1024.40,2070.04,2402.01,2329.14,2599.71,599.88,621.99,36.97,0000 0000 0000 0000 000000
2015-12-22 01:43:11,0.11,3.70,0.00,12.73,17.09,20.99,15.27,49.32,1024.43,2070.03,2400.60,2328.04,2598.46,600.05,622.28,37.02,0000 0000 0000 0000 000000
2015-12-22 01:48:12,0.12,3.71,0.00,12.75,17.08,20.99,15.31,49.33,1024.41,2070.04,2399.02,2326.89,2597.13,599.91,621.98,37.07,0000 0000 0000 0000 000000
2015-12-22 01:53:14,0.12,3.71,0.00,12.73,17.07,20.98,15.28,49.45,1024.41,2070.06,2397.47,2325.72,2595.87,600.28,622.46,37.12,0000 0000 0000 0000 000000
2015-12-22 01:58:15,0.12,3.72,0.00,12.73,17.07,20.92,15.21,49.35,1024.43,2070.05,2395.87,2324.59,2594.61,599.87,622.05,37.17,0000 0000 0000 0000 000000
2015-12-22 02:03:17,0.11,3.72,0.00,12.72,17.07,20.96,15.20,49.48,1024.38,2070.06,2394.20,2323.40,2593.29,599.86,621.94,37.22,0000 0000 0000 0000 000000
2015-12-22 02:08:18,0.12,3.73,0.00,12.70,17.07,21.00,15.22,49.41,1024.33,2070.05,2392.63,2322.20,2591.93,600.13,622.28,37.27,0000 0000 0000 0000 000000
2015-12-22 02:13:20,0.12,3.74,0.00,12.70,17.07,20.99,15.26,49.51,1024.39,2070.06,2391.08,2321.03,2590.67,599.93,622.15,37.32,0000 0000 0000 0000 000000
2015-12-22 02:18:21,0.12,3.74,0.00,12.70,17.07,20.96,15.32,49.52,1024.38,2070.07,2389.61,2319.89,2589.40,600.12,622.41,37.37,0000 0000 0000 0000 000000
2015-12-22 02:23:22,0.11,3.75,0.00,12.69,17.05,20.96,15.31,49.49,1024.39,2070.06,2388.06,2318.75,2588.07,599.86,622.26,37.42,0000 0000 0000 0000 000000
2015-12-22 02:28:24,0.13,3.76,0.00,12.68,17.04,20.94,15.24,49.35,1024.40,2070.04,2386.48,2317.60,2586.72,600.08,622.37,37.47,0000 0000 0000 0000 000000
2015-12-22 02:33:25,0.12,3.76,0.00,12.65,17.04,20.93,15.19,49.43,1024.42,2070.05,2384.96,2316.49,2585.48,599.86,622.30,37.53,0000 0000 0000 0000 000000
2015-12-22 02:38:26,0.11,3.77,0.00,12.68,17.04,20.93,15.26,49.39,1024.43,2070.10,2383.39,2315.36,2584.24,599.83,622.03,37.58,0000 0000 0000 0000 000000
2015-12-22 02:43:27,0.11,3.77,0.00,12.69,17.03,20.92,15.28,49.55,1024.43,2070.05,2381.82,2314.17,2582.89,600.37,622.50,37.63,0000 0000 0000 0000 000000
2015-12-22 02:48:29,0.14,3.78,0.00,12.68,17.02,20.90,15.22,49.46,1024.43,2070.18,2380.18,2313.02,2581.61,600.08,622.38,37.68,0000 0000 0000 0000 000000
2015-12-22 02:53:30,0.13,3.79,0.00,12.68,17.02,20.88,15.22,49.33,1024.41,2070.31,2378.63,2311.86,2580.38,599.97,622.26,37.73,0000 0000 0000 0000 000000
2015-12-22 02:58:31,0.11,3.79,0.00,12.68,17.01,20.89,15.26,49.51,1024.38,2070.31,2377.25,2310.72,2579.09,599.48,621.70,37.78,0000 0000 0000 0000 000000
2015-12-22 03:03:32,0.14,3.80,0.00,12.65,16.99,20.88,15.21,49.44,1024.33,2070.45,2375.59,2309.62,2577.78,600.14,622.46,37.83,0000 0000 0000 0000 000000
2015-12-22 03:08:34,0.13,3.81,0.00,12.67,16.99,20.88,15.23,49.38,1024.43,2070.41,2373.92,2308.43,2576.52,599.84,622.15,37.88,0000 0000 0000 0000 000000
2015-12-22 03:13:35,0.10,3.81,0.00,12.66,16.99,20.89,15.22,49.48,1024.42,2070.49,2372.40,2307.30,2575.31,599.89,622.22,37.93,0000 0000 0000 0000 000000
2015-12-22 03:18:36,0.14,3.82,0.00,12.63,16.99,20.89,15.31,49.52,1024.43,2070.60,2370.95,2306.20,2573.97,600.13,622.66,37.98,0000 0000 0000 0000 000000
2015-12-22 03:23:38,0.13,3.83,0.00,12.62,16.99,20.85,15.25,49.52,1024.43,2070.86,2369.45,2305.03,2572.72,599.95,622.45,38.03,0000 0000 0000 0000 000000
2015-12-22 03:28:39,0.12,3.83,0.00,12.62,16.97,20.84,15.25,49.52,1024.42,2070.84,2367.88,2303.91,2571.48,600.13,622.57,38.08,0000 0000 0000 0000 000000
2015-12-22 03:33:40,0.11,3.84,0.00,12.60,16.97,20.88,15.17,49.38,1024.42,2070.83,2366.57,2302.87,2570.23,599.79,622.26,38.13,0000 0000 0000 0000 000000
2015-12-22 03:38:42,0.11,3.85,0.00,12.59,16.97,20.87,15.29,49.48,1024.43,2070.94,2365.07,2301.84,2569.02,600.18,622.57,38.18,0000 0000 0000 0000 000000
2015-12-22 03:43:43,0.13,3.85,0.00,12.60,16.97,20.87,15.30,49.52,1024.43,2070.96,2363.59,2300.71,2567.75,600.21,622.74,38.23,0000 0000 0000 0000 000000
2015-12-22 03:48:45,0.11,3.86,0.00,12.60,16.95,20.85,15.28,49.49,1024.43,2070.97,2362.10,2299.65,2566.59,600.09,622.55,38.28,0000 0000 0000 0000 000000
2015-12-22 03:53:46,0.11,3.86,0.00,12.57,16.94,20.87,15.24,49.38,1024.43,2070.98,2360.69,2298.58,2565.38,599.74,622.28,38.33,0000 0000 0000 0000 000000
2015-12-22 03:58:47,0.12,3.87,0.00,12.54,16.94,20.83,15.23,49.33,1024.43,2070.98,2359.01,2297.36,2564.09,599.84,622.47,38.38,0000 0000 0000 0000 000000
2015-12-22 04:03:48,0.12,3.88,0.00,12.54,16.92,20.81,15.30,49.48,1024.43,2070.99,2357.36,2296.24,2562.77,600.07,622.83,38.44,0000 0000 0000 0000 000000
2015-12-22 04:08:49,0.13,3.88,0.00,12.57,16.92,20.84,15.30,49.48,1024.44,2070.98,2355.72,2294.98,2561.41,600.40,622.99,38.49,0000 0000 0000 0000 000000
2015-12-22 04:13:51,0.11,3.89,0.00,12.56,16.91,20.82,15.30,49.47,1024.45,2070.98,2354.33,2293.83,2560.14,599.77,622.42,38.54,0000 0000 0000 0000 000000
2015-12-22 04:18:52,0.13,3.89,0.00,12.56,16.90,20.77,15.28,49.32,1024.63,2070.98,2352.76,2292.68,2558.90,599.91,622.57,38.59,0000 0000 0000 0000 000000
2015-12-22 04:27:56,0.12,3.91,0.00,12.51,16.89,20.73,15.28,49.48,1024.68,2070.99,2349.91,2290.52,2556.58,600.27,623.19,38.68,0000 0000 0000 0000 000000
2015-12-22 04:32:57,0.11,3.91,0.00,12.50,16.89,20.80,15.28,49.34,1024.50,2070.99,2348.44,2289.36,2555.30,600.09,622.83,38.73,0000 0000 0000 0000 000000
2015-12-22 04:37:59,0.13,3.92,0.00,12.43,16.87,20.77,15.27,49.48,1024.53,2070.99,2346.80,2288.18,2553.90,600.07,622.92,38.78,0000 0000 0000 0000 000000
2015-12-22 04:43:01,0.16,3.93,0.00,12.39,16.87,20.76,15.32,49.55,1024.51,2070.99,2344.76,2286.68,2552.33,600.27,623.38,38.83,0000 0000 0000 0000 000000
2015-12-22 04:48:03,0.14,3.93,0.00,12.20,16.85,20.71,15.32,49.63,1024.53,2070.99,2342.73,2285.30,2550.77,600.09,623.45,38.88,0000 0000 0000 0000 000000
2015-12-22 04:53:05,0.12,3.94,0.00,12.08,16.84,20.83,15.33,49.59,1024.54,2070.99,2340.98,2284.08,2549.44,599.95,623.68,38.93,0000 0000 0000 0000 000000
2015-12-22 04:58:06,0.12,3.95,0.00,12.02,16.81,20.81,15.33,49.61,1024.77,2070.99,2339.39,2282.88,2548.14,600.07,623.99,38.98,0000 0000 0000 0000 000000
2015-12-22 05:03:08,0.13,3.95,0.00,11.91,16.79,20.79,15.32,49.66,1024.75,2071.00,2337.73,2281.72,2546.83,599.89,624.06,39.03,0000 0000 0000 0000 000000
2015-12-22 05:08:10,0.12,3.96,0.00,11.94,16.77,20.72,15.35,49.72,1024.74,2071.03,2336.30,2280.66,2545.61,600.11,624.29,39.08,0000 0000 0000 0000 000000
2015-12-22 05:13:12,0.11,3.97,0.00,12.02,16.74,20.71,15.31,49.55,1024.84,2071.08,2334.91,2279.59,2544.45,600.04,624.04,39.13,0000 0000 0000 0000 000000
2015-12-22 05:18:14,0.13,3.97,0.00,12.03,16.73,20.69,15.32,49.38,1024.86,2071.14,2333.42,2278.45,2543.10,600.23,624.21,39.18,0000 0000 0000 0000 000000
2015-12-22 05:23:16,0.16,3.98,0.00,12.03,16.72,20.63,15.36,49.49,1024.91,2071.37,2331.67,2277.28,2541.77,599.82,623.81,39.24,0000 0000 0000 0000 000000
2015-12-22 05:28:17,0.13,3.99,0.00,12.00,16.69,20.59,15.41,49.45,1024.92,2071.55,2330.06,2276.09,2540.51,599.85,623.85,39.29,0000 0000 0000 0000 000000
2015-12-22 05:33:19,0.16,4.00,0.00,11.99,16.68,20.61,15.39,49.59,1024.92,2071.84,2328.39,2274.90,2539.28,600.17,624.26,39.34,0000 0000 0000 0000 000000
2015-12-22 05:38:21,0.13,4.00,0.00,12.03,16.65,20.54,15.36,49.69,1024.92,2071.93,2326.74,2273.77,2537.96,599.90,623.92,39.39,0000 0000 0000 0000 000000
2015-12-22 05:43:23,0.13,4.01,0.00,12.04,16.64,20.49,15.27,49.66,1024.92,2071.93,2325.12,2272.61,2536.65,599.80,623.79,39.44,0000 0000 0000 0000 000000
2015-12-22 05:48:25,0.12,4.02,0.00,12.04,16.62,20.57,15.30,49.67,1024.95,2071.98,2323.62,2271.57,2535.45,600.27,624.46,39.49,0000 0000 0000 0000 000000
2015-12-22 05:53:26,0.11,4.02,0.00,12.06,16.59,20.52,15.36,49.83,1024.95,2071.99,2322.09,2270.37,2534.22,600.06,624.03,39.54,0000 0000 0000 0000 000000
2015-12-22 05:58:28,0.12,4.03,0.00,12.08,16.58,20.45,15.31,49.64,1024.93,2071.99,2320.55,2269.24,2532.90,600.16,624.14,39.59,0000 0000 0000 0000 000000
2015-12-22 06:03:30,0.12,4.04,0.00,12.15,16.57,20.41,15.34,49.63,1024.93,2071.99,2319.00,2268.09,2531.68,599.93,623.69,39.64,0000 0000 0000 0000 000000
2015-12-22 06:08:32,0.12,4.04,0.00,12.16,16.54,20.45,15.28,49.67,1024.92,2071.99,2317.50,2266.96,2530.45,599.65,623.36,39.69,0000 0000 0000 0000 000000
2015-12-22 06:13:34,0.12,4.05,0.00,12.15,16.53,20.41,15.40,49.72,1024.92,2071.99,2315.93,2265.84,2529.21,600.19,623.88,39.74,0000 0000 0000 0000 000000
2015-12-22 06:18:35,0.12,4.05,0.00,12.19,16.52,20.42,15.33,49.60,1024.92,2071.99,2314.42,2264.69,2527.94,600.03,623.67,39.79,0000 0000 0000 0000 000000
2015-12-22 06:23:37,0.13,4.06,0.00,12.20,16.50,20.38,15.34,49.74,1024.93,2072.01,2312.87,2263.62,2526.63,600.03,623.70,39.84,0000 0000 0000 0000 000000
2015-12-22 06:28:39,0.11,4.07,0.00,12.24,16.49,20.37,15.20,49.41,1024.93,2072.01,2311.43,2262.49,2525.40,599.74,623.29,39.89,0000 0000 0000 0000 000000
2015-12-22 06:33:40,0.11,4.07,0.00,12.24,16.49,20.39,15.27,49.55,1024.96,2072.01,2309.92,2261.38,2524.09,599.78,623.43,39.94,0000 0000 0000 0000 000000
2015-12-22 06:38:41,0.12,4.08,0.00,12.26,16.48,20.36,15.28,49.47,1025.03,2072.03,2308.48,2260.24,2522.81,600.18,623.62,40.00,0000 0000 0000 0000 000000
2015-12-22 06:43:43,0.12,4.09,0.00,12.25,16.47,20.40,15.31,49.49,1025.11,2072.01,2306.86,2259.04,2521.54,600.57,624.26,40.05,0000 0000 0000 0000 000000
2015-12-22 06:48:44,0.12,4.09,0.00,12.27,16.47,20.38,15.27,49.47,1025.02,2072.01,2305.43,2257.93,2520.29,599.83,623.45,40.10,0000 0000 0000 0000 000000
2015-12-22 06:53:46,0.14,4.10,0.00,12.30,16.47,20.43,15.27,49.39,1025.10,2072.00,2303.84,2256.74,2518.96,599.93,623.50,40.15,0000 0000 0000 0000 000000
2015-12-22 06:58:48,0.13,4.11,0.00,12.32,16.48,20.41,15.32,49.52,1025.07,2072.03,2302.22,2255.58,2517.62,600.10,623.55,40.20,0000 0000 0000 0000 000000
2015-12-22 07:03:49,0.13,4.11,0.00,12.30,16.49,20.42,15.22,49.46,1025.34,2072.03,2300.54,2254.30,2516.25,599.62,623.31,40.25,0000 0000 0000 0000 000000
2015-12-22 07:08:50,0.13,4.12,0.00,12.31,16.48,20.43,15.27,49.57,1025.39,2072.03,2298.92,2253.07,2514.88,599.82,623.63,40.30,0000 0000 0000 0000 000000
2015-12-22 07:13:52,0.13,4.13,0.00,12.31,16.48,20.44,15.34,49.69,1025.38,2072.08,2297.38,2251.89,2513.55,600.08,623.85,40.35,0000 0000 0000 0000 000000
2015-12-22 07:18:53,0.13,4.13,0.00,12.32,16.49,20.42,15.28,49.63,1025.36,2072.08,2295.76,2250.70,2512.29,600.04,623.70,40.40,0000 0000 0000 0000 000000
2015-12-22 07:23:55,0.13,4.14,0.00,12.32,16.49,20.39,15.25,49.48,1025.28,2072.08,2294.15,2249.50,2510.88,599.89,623.47,40.45,0000 0000 0000 0000 000000
2015-12-22 07:28:56,0.12,4.15,0.00,12.33,16.49,20.41,15.22,49.47,1025.33,2072.06,2292.56,2248.32,2509.53,599.71,623.24,40.50,0000 0000 0000 0000 000000
2015-12-22 07:33:58,0.12,4.15,0.00,12.36,16.49,20.41,15.30,49.35,1025.21,2072.05,2290.93,2247.08,2508.16,600.51,624.00,40.55,0000 0000 0000 0000 000000
2015-12-22 07:38:59,0.14,4.16,0.00,12.37,16.49,20.41,15.28,49.38,1025.34,2072.04,2289.30,2245.83,2506.79,599.84,623.37,40.60,0000 0000 0000 0000 000000
2015-12-22 07:44:00,0.14,4.17,0.00,12.34,16.49,20.45,15.20,49.53,1025.40,2072.05,2287.66,2244.63,2505.46,599.72,623.33,40.65,0000 0000 0000 0000 000000
2015-12-22 07:49:01,0.12,4.17,0.00,12.32,16.49,20.44,15.25,49.50,1025.40,2072.03,2286.01,2243.42,2504.07,600.06,623.73,40.70,0000 0000 0000 0000 000000
2015-12-22 07:54:03,0.13,4.18,0.00,12.32,16.49,20.49,15.26,49.52,1025.40,2072.01,2284.43,2242.19,2502.70,599.79,623.45,40.75,0000 0000 0000 0000 000000
2015-12-22 07:59:04,0.14,4.19,0.00,12.36,16.52,20.41,15.29,49.44,1025.40,2072.01,2282.65,2240.89,2501.38,600.08,623.68,40.80,0000 0000 0000 0000 000000
2015-12-22 08:04:06,0.14,4.19,0.00,12.35,16.52,20.46,15.28,49.61,1025.40,2072.02,2280.96,2239.69,2499.89,600.08,623.64,40.85,0000 0000 0000 0000 000000
2015-12-22 08:09:07,0.12,4.20,0.00,12.34,16.52,20.46,15.24,49.56,1025.40,2072.01,2279.43,2238.58,2498.55,600.07,623.71,40.91,0000 0000 0000 0000 000000
2015-12-22 08:14:09,0.13,4.21,0.00,12.35,16.52,20.43,15.25,49.52,1025.40,2072.01,2277.75,2237.44,2497.19,599.80,623.38,40.96,0000 0000 0000 0000 000000
2015-12-22 08:19:10,0.11,4.21,0.00,12.32,16.52,20.45,15.25,49.52,1025.39,2072.01,2276.24,2236.27,2495.89,599.79,623.47,41.01,0000 0000 0000 0000 000000
2015-12-22 08:24:12,0.13,4.22,0.00,12.34,16.52,20.49,15.31,49.48,1025.35,2072.00,2274.67,2235.05,2494.66,599.91,623.72,41.06,0000 0000 0000 0000 000000
2015-12-22 08:29:13,0.14,4.23,0.00,12.34,16.54,20.49,15.25,49.58,1025.35,2072.00,2272.98,2233.75,2493.37,599.89,623.48,41.11,0000 0000 0000 0000 000000
2015-12-22 08:34:14,0.13,4.23,0.00,12.33,16.54,20.48,15.29,49.53,1025.29,2072.00,2271.43,2232.59,2491.92,599.88,623.50,41.16,0000 0000 0000 0000 000000
2015-12-22 08:39:16,0.13,4.24,0.00,12.36,16.54,20.48,15.32,49.66,1025.37,2072.00,2269.70,2231.44,2490.63,599.81,623.28,41.21,0000 0000 0000 0000 000000
2015-12-22 08:44:17,0.12,4.25,0.00,12.35,16.54,20.52,15.32,49.56,1025.39,2072.00,2268.13,2230.14,2489.30,600.02,623.54,41.26,0000 0000 0000 0000 000000
2015-12-22 08:49:18,0.14,4.26,0.00,12.34,16.54,20.50,15.30,49.48,1025.40,2072.00,2266.51,2228.93,2487.91,600.25,623.94,41.31,0000 0000 0000 0000 000000
2015-12-22 08:54:20,0.14,4.26,0.00,12.37,16.54,20.46,15.32,49.44,1025.40,2072.00,2264.87,2227.75,2486.56,599.93,623.46,41.36,0000 0000 0000 0000 000000
2015-12-22 08:59:20,0.12,4.27,0.00,12.39,16.55,20.48,15.25,49.58,1025.40,2072.00,2263.34,2226.59,2485.32,599.95,623.52,41.41,0000 0000 0000 0000 000000
2015-12-22 09:04:22,0.13,4.28,0.00,12.39,16.56,20.52,15.30,49.51,1025.41,2072.00,2261.70,2225.39,2483.91,600.37,623.92,41.46,0000 0000 0000 0000 000000
2015-12-22 09:09:23,0.12,4.28,0.00,12.37,16.57,20.46,15.26,49.52,1025.42,2072.00,2260.12,2224.17,2482.57,599.96,623.55,41.51,0000 0000 0000 0000 000000
2015-12-22 09:14:24,0.14,4.29,0.00,12.38,16.57,20.44,15.30,49.54,1025.44,2071.99,2258.47,2222.89,2481.25,600.28,623.88,41.56,0000 0000 0000 0000 000000
2015-12-22 09:19:25,0.14,4.30,0.00,12.37,16.57,20.49,15.30,49.66,1025.45,2071.99,2256.81,2221.73,2479.89,599.90,623.57,41.61,0000 0000 0000 0000 000000
2015-12-22 09:24:27,0.13,4.30,0.00,12.37,16.57,20.51,15.28,49.72,1025.45,2071.99,2255.32,2220.55,2478.55,600.02,623.56,41.66,0000 0000 0000 0000 000000
2015-12-22 09:29:28,0.13,4.31,0.00,12.37,16.57,20.53,15.30,49.84,1025.50,2071.99,2253.64,2219.38,2477.19,599.55,623.17,41.71,0000 0000 0000 0000 000000
2015-12-22 09:34:29,0.13,4.32,0.00,12.36,16.58,20.52,15.26,49.59,1025.77,2071.99,2252.00,2218.13,2475.82,599.80,623.51,41.76,0000 0000 0000 0000 000000
2015-12-22 09:39:31,0.14,4.33,0.00,12.35,16.58,20.47,15.34,49.54,1025.88,2071.99,2250.44,2216.84,2474.49,600.29,624.22,41.81,0000 0000 0000 0000 000000
2015-12-22 09:44:32,0.13,4.33,0.00,12.35,16.58,20.51,15.21,49.52,1025.88,2071.99,2248.80,2215.68,2473.12,600.05,624.01,41.87,0000 0000 0000 0000 000000
2015-12-22 09:49:34,0.13,4.34,0.00,12.36,16.58,20.49,15.28,49.58,1025.88,2071.98,2247.23,2214.48,2471.76,599.94,623.77,41.92,0000 0000 0000 0000 000000
2015-12-22 09:54:35,0.13,4.35,0.00,12.37,16.59,20.52,15.33,49.58,1025.88,2071.99,2245.65,2213.32,2470.47,600.23,624.08,41.97,0000 0000 0000 0000 000000
2015-12-22 09:59:36,0.13,4.35,0.00,12.39,16.59,20.52,15.29,49.63,1025.89,2071.99,2243.92,2212.12,2469.15,600.08,624.07,42.02,0000 0000 0000 0000 000000
2015-12-22 10:04:38,0.13,4.36,0.00,12.42,16.59,20.53,15.27,49.34,1025.89,2071.99,2242.36,2210.90,2467.79,600.02,623.81,42.07,0000 0000 0000 0000 000000
2015-12-22 10:09:39,0.14,4.37,0.00,12.38,16.59,20.56,15.23,49.59,1025.88,2071.99,2240.76,2209.71,2466.54,600.00,623.83,42.12,0000 0000 0000 0000 000000
2015-12-22 10:14:40,0.13,4.37,0.00,12.39,16.59,20.49,15.30,49.53,1025.86,2071.99,2239.16,2208.50,2465.10,599.99,623.82,42.17,0000 0000 0000 0000 000000
2015-12-22 10:19:42,0.13,4.38,0.00,12.38,16.59,20.53,15.23,49.64,1025.70,2071.98,2237.62,2207.27,2463.74,600.23,623.92,42.22,0000 0000 0000 0000 000000
2015-12-22 10:24:43,0.13,4.39,0.00,12.38,16.59,20.56,15.34,49.65,1025.88,2071.99,2236.01,2206.01,2462.39,600.03,623.84,42.27,0000 0000 0000 0000 000000
2015-12-22 10:29:45,0.14,4.39,0.00,12.41,16.59,20.52,15.29,49.58,1025.89,2071.99,2234.50,2204.83,2461.05,599.97,623.75,42.32,0000 0000 0000 0000 000000
2015-12-22 10:34:45,0.13,4.40,0.00,12.40,16.59,20.58,15.34,49.69,1025.89,2071.99,2232.97,2203.68,2459.70,600.04,623.90,42.37,0000 0000 0000 0000 000000
2015-12-22 10:39:47,0.13,4.41,0.00,12.41,16.59,20.48,15.30,49.67,1025.89,2071.99,2231.35,2202.55,2458.42,599.89,623.78,42.42,0000 0000 0000 0000 000000
2015-12-22 10:44:48,0.14,4.42,0.00,12.43,16.60,20.53,15.33,49.43,1025.90,2071.98,2229.63,2201.29,2456.99,599.99,623.73,42.47,0000 0000 0000 0000 000000
2015-12-22 10:49:50,0.13,4.42,0.00,12.42,16.61,20.56,15.23,49.65,1025.91,2071.99,2228.01,2200.07,2455.67,599.77,623.41,42.52,0000 0000 0000 0000 000000
2015-12-22 10:54:51,0.15,4.43,0.00,12.40,16.61,20.55,15.31,49.72,1025.90,2071.98,2226.38,2198.76,2454.29,600.00,623.83,42.57,0000 0000 0000 0000 000000
2015-12-22 10:59:53,0.15,4.44,0.00,12.39,16.62,20.54,15.27,49.65,1025.91,2071.99,2224.63,2197.51,2452.84,599.74,623.56,42.62,0000 0000 0000 0000 000000
2015-12-22 11:04:54,0.12,4.44,0.00,12.40,16.62,20.55,15.32,49.47,1025.92,2071.99,2223.16,2196.39,2451.53,600.30,624.13,42.67,0000 0000 0000 0000 000000
2015-12-22 11:09:55,0.14,4.45,0.00,12.43,16.62,20.54,15.23,49.46,1025.90,2071.99,2221.45,2195.08,2450.11,599.75,623.47,42.73,0000 0000 0000 0000 000000
2015-12-22 11:14:57,0.16,4.46,0.00,12.41,16.62,20.61,15.26,49.55,1025.90,2071.98,2219.78,2193.83,2448.70,600.03,623.73,42.78,0000 0000 0000 0000 000000
2015-12-22 11:19:58,0.14,4.47,0.00,12.40,16.62,20.57,15.21,49.58,1025.90,2071.97,2218.09,2192.59,2447.36,599.95,623.82,42.83,0000 0000 0000 0000 000000
2015-12-22 11:24:59,0.14,4.47,0.00,12.39,16.62,20.58,15.32,49.58,1025.90,2071.97,2216.43,2191.38,2445.88,600.07,623.91,42.88,0000 0000 0000 0000 000000
2015-12-22 11:30:00,0.14,4.48,0.00,12.41,16.64,20.59,15.38,49.70,1025.90,2071.97,2214.72,2190.11,2444.49,600.26,624.05,42.93,0000 0000 0000 0000 000000
2015-12-22 11:35:02,0.15,4.49,0.00,12.43,16.64,20.62,15.31,49.70,1025.89,2071.98,2213.02,2188.77,2443.08,599.80,623.50,42.98,0000 0000 0000 0000 000000
2015-12-22 11:40:03,0.14,4.49,0.00,12.43,16.64,20.63,15.35,49.69,1025.89,2071.97,2211.35,2187.54,2441.62,600.13,623.86,43.03,0000 0000 0000 0000 000000
2015-12-22 11:45:05,0.14,4.50,0.00,12.43,16.64,20.60,15.26,49.63,1025.89,2071.97,2209.63,2186.24,2440.22,599.88,623.64,43.08,0000 0000 0000 0000 000000
2015-12-22 11:50:06,0.14,4.51,0.00,12.42,16.64,20.61,15.23,49.56,1025.89,2071.98,2207.97,2184.92,2438.79,599.71,623.38,43.13,0000 0000 0000 0000 000000
2015-12-22 11:55:08,0.16,4.52,0.00,12.42,16.65,20.61,15.24,49.69,1025.88,2071.98,2206.16,2183.61,2437.35,600.26,624.01,43.18,0000 0000 0000 0000 000000
2015-12-22 12:00:09,0.14,4.53,0.00,12.43,16.65,20.66,15.31,49.71,1025.89,2071.97,2204.54,2182.39,2435.88,599.96,623.71,43.23,0000 0000 0000 0000 000000
2015-12-22 12:05:10,0.14,4.53,0.00,12.44,16.66,20.61,15.25,49.62,1025.90,2071.97,2202.87,2181.10,2434.51,600.21,623.91,43.28,0000 0000 0000 0000 000000
2015-12-22 12:10:12,0.14,4.54,0.00,12.45,16.67,20.54,15.32,49.58,1025.90,2071.95,2201.18,2179.81,2433.07,600.05,623.71,43.33,0000 0000 0000 0000 000000
2015-12-22 12:15:13,0.16,4.55,0.00,12.44,16.67,20.59,15.24,49.46,1025.90,2071.96,2199.43,2178.54,2431.66,599.89,623.61,43.38,0000 0000 0000 0000 000000
2015-12-22 12:20:14,0.13,4.56,0.00,12.41,16.67,20.60,15.31,49.70,1025.90,2071.92,2197.61,2177.24,2430.26,599.99,623.76,43.43,0000 0000 0000 0000 000000
2015-12-22 12:25:15,0.17,4.56,0.00,12.42,16.67,20.60,15.28,49.69,1025.90,2071.95,2195.88,2175.85,2428.79,600.19,623.92,43.48,0000 0000 0000 0000 000000
2015-12-22 12:30:16,0.13,4.57,0.00,12.47,16.67,20.58,15.22,49.68,1025.90,2071.94,2194.25,2174.72,2427.41,599.73,623.27,43.53,0000 0000 0000 0000 000000
2015-12-22 12:35:17,0.14,4.58,0.00,12.47,16.68,20.61,15.30,49.67,1025.93,2071.91,2192.59,2173.50,2425.98,600.13,623.82,43.58,0000 0000 0000 0000 000000
2015-12-22 12:40:18,0.14,4.59,0.00,12.45,16.69,20.59,15.33,49.77,1025.91,2071.85,2190.89,2172.22,2424.58,600.04,623.75,43.64,0000 0000 0000 0000 000000
2015-12-22 12:45:20,0.14,4.59,0.00,12.45,16.69,20.56,15.31,49.61,1025.91,2071.68,2189.19,2170.85,2423.06,599.89,623.57,43.69,0000 0000 0000 0000 000000
2015-12-22 12:50:21,0.14,4.60,0.00,12.47,16.69,20.61,15.29,49.74,1025.91,2071.52,2187.46,2169.55,2421.59,600.12,623.61,43.74,0000 0000 0000 0000 000000
2015-12-22 12:55:22,0.11,4.61,0.00,12.44,16.69,20.62,15.35,49.83,1025.90,2071.29,2185.72,2168.25,2420.15,600.07,623.61,43.79,0000 0000 0000 0000 000000
2015-12-22 13:00:24,0.17,4.61,0.00,12.44,16.69,20.61,15.30,49.89,1025.90,2071.40,2183.95,2166.92,2418.66,600.21,623.93,43.84,0000 0000 0000 0000 000000